Location: Newark
(48.1500°N, 2.9667°W)
Time: 07:26:35
(UTC+00:00)

A-11 Canister half - Pass Details

Date: 01 February 2020
Orbit: 1517 x 1683 km, 47.2° (Epoch: 20 February)

Event Time Altitude Azimuth Distance (km) Brightness Sun altitude
Rises 21:40:23 0° 225° (SW) 4,795 11.8 -44.3°
Reaches altitude 10° 21:43:37 10° 220° (SW) 3,789 11.1 -44.7°
Enters shadow 21:44:47 14° 218° (SW) 3,434 10.8 -44.9°
